Regional Weather Roundup
Issued by NWS Mobile, AL

Home | Current Version | Previous Version | Text Only | Print | Product List | Glossary On
Versions: 1 2 3 4 5 6 7 8 9 10 11 12 13 14 15 16 17 18 19 20 21 22 23 24 25 26 27
000
ASUS44 KMOB 261312
RWRMOB
REGIONAL WEATHER ROUNDUP
NATIONAL WEATHER SERVICE MOBILE AL
800 AM CDT WED APR 26 2017

NOTE: "FAIR" INDICATES FEW OR NO CLOUDS BELOW 12,000 FEET WITH NO
      SIGNIFICANT WEATHER AND/OR OBSTRUCTIONS TO VISIBILITY.

  * THESE STATIONS ARE PART OF THE UNIVERSITY OF SOUTH ALABAMA
    MESONET AND ARE NOT UNDER NWS OR FAA QUALITY CONTROL.

ALZ061>064-261400-
COASTAL ALABAMA

CITY           SKY/WX    TMP DP  RH WIND       PRES   REMARKS
MOBILE REG APT MOSUNNY   67  60  78 SE8       29.78R
BROOKLEY FIELD MOSUNNY   73  62  68 S14G21    29.79R
USA CAMPUS*    NOT AVBL
DOG RIVER*     NOT AVBL


CITY           SKY/WX    TMP DP  RH WIND       PRES   REMARKS
GULF SHORES    MOSUNNY   72  60  67 S13       29.79R

$$

ALZ051>060-261400-
INTERIOR SOUTHWEST AND SOUTH CENTRAL ALABAMA

CITY           SKY/WX    TMP DP  RH WIND       PRES   REMARKS
GREENVILLE     SUNNY     63  57  81 CALM      29.82R
EVERGREEN      SUNNY     61  57  87 CALM      29.82R
ATMORE*        NOT AVBL
ANDALUSIA/OPP  SUNNY     66  59  78 E3        29.82R
ANDALUSIA*     NOT AVBL
FLORALA APT    MOSUNNY   66  60  81 SE3       29.84R
FLORALA*         N/A     68  63  83 CALM      30.49R

$$

FLZ001>006-261400-
WESTERN FLORIDA PANHANDLE

CITY           SKY/WX    TMP DP  RH WIND       PRES   REMARKS
PENSACOLA      MOSUNNY   74  58  57 S16       29.80R
NAS PENSACOLA  MOSUNNY   73  58  59 S14       29.79R
MILTON         MOSUNNY   65  61  87 SE3       29.81R
WHTNG S FIELD  MOSUNNY   69  61  75 S3        29.81R


CITY           SKY/WX    TMP DP  RH WIND       PRES   REMARKS
JAY*             N/A     66  59  77 SE6       29.81R
CRESTVIEW      MOSUNNY   63  58  83 CALM      29.83R
VALPARAISO     MOSUNNY   73  57  57 S9        29.81R
DESTIN         MOSUNNY   74  60  61 S8        29.81R

$$

MSZ076-079-261400-
INTERIOR SOUTHEAST MISSISSIPPI

CITY           SKY/WX    TMP DP  RH WIND       PRES   REMARKS
LEAKESVILLE*   NOT AVBL
AGRICOLA*      NOT AVBL

$$

MARINE OBSERVATIONS

STATION/POSITION TIME  TEMP    WIND        PRES    WAVE
                       AIR SEA DIR/SP/G            HT/PER
                 (UTC) (F)     (DEG/KT/KT) (MB)    (FT/S)
PASCAGOULA       1248   72     160/ 18/ 23 1007.8R
PETIT BOIS ISLND 1248   71     160/ 15/ 20 1008.6R
GRAND BAY        1145   71     180/ 13     1008.0S
KATRINA CUT      1230   72     180/ 19     1007.5S
CEDAR POINT      1230   72     170/ 17     1007.8R
E DAUPHIN ISLAND 1200   72     170/ 15/ 18 1007.8R
MIDDLE BAY LIGHT 1230   72     170/ 19     1008.8R
USCG MOBILE BAY  1248   71 74  180/  9/ 18 1008.9R
STATE DOCKS      1248   72 75              1008.4R
MEAHER PARK      1230   68     130/  8     1008.1R
FORT MORGAN      1248   72     170/ 17/ 19   N/A
12 S ORANGE BCH  1150   71 73  170/ 14/ 17 1007.8R   3/ 4
PENSACOLA BAY    1248   73 72  180/  5/ 12 1009.2R
64 S DAUPHIN ISL 1250   72 74  150/ 17/ 21 1008.5R   3/ 4
67 S FORT MORGAN 1230   70     170/ 17     1008.8R

$$

SELECTED LOCATIONS ACROSS THE REGION

CITY           SKY/WX    TMP DP  RH WIND       PRES   REMARKS
NEW ORLEANS    CLOUDY    72  64  76 S9        29.73R
GULFPORT       PTSUNNY   72  62  71 S9G17     29.76R
PASCAGOULA AP  MOSUNNY   72  60  66 S8        29.77R
PASCAGOULA*    NOT AVBL
HATTIESBURG    CLOUDY    61  57  87 E5        29.78R
LAUREL         CLOUDY    61  57  88 S6        29.78R
MERIDIAN       MOSUNNY   64  60  87 CALM      29.78R
JACKSON        PTSUNNY   65  60  84 SE12      29.72R
MONTGOMERY     SUNNY     65  57  75 S5        29.83R
TROY           SUNNY     62  59  90 CALM      29.85R
ASHFORD*       NOT AVBL
DOTHAN         SUNNY     65  62  90 S3        29.88R
PANAMA CITY    MOSUNNY   67  61  81 E3        29.82R

$$





USA.gov is the U.S. government's official web portal to all federal, state and local government web resources and services.